Powrót do katalogu

STARLINK-34546

AktywnyŁącznośćVLEO
NORAD 64718·PAYLOAD·🇺🇸 United States

Wystrzelony Jun 28, 2025 z Vandenberg Space Force Base

Loading…

Następne Przeloty (najbliższe 24 godziny)

TLE

ŚwieżeSource: CelesTrak SupGP

Epoka: Sep 14, 2026, 20:58 UTC

1 64718C 25142Y   26257.87409722  .00002964  00000+0  10310-3 0  2576
2 64718  70.0015 195.9143 0003052 270.5130 224.7695 15.29586494    10

Śledź STARLINK-34546 w czasie rzeczywistym z AllMySat

Download on the App Store